Showing default

SPIP, 58298

Orbit data source: Space-Track

SPIP, 58298 is a payload satellite owned by Aerospacelab (BE) in SSO that was launched on Sat, 11 Nov 2023 UTC via an FALCON 9 launch vehicle from the Air Force Western Test Range (AFWTR). Payload-class satellites include a variety of spacecraft equipped with specific instruments for various scientific and technological missions. These include communications satellites like Starlink; space stations such as the ISS; scientific satellites like the Hubble; Earth observation satellites from companies like Planet Labs, Umbra, and HawkEye 360; GPS; miniature CubeSats for education and research; and military/defense satellites.

Loading next visibility...
Identifier
58298, 2023-174AU
Orbit
SSO
Country
Flag of BEBE / BEL
Related business
Manufacturer
Aerospacelab
Mission
Operational Commercial Imaging
Bus & Motor
VSP, Unknown motor
Mass
120 kg wet, 120 kg dry
Launch date (UTC)
2023-11-11 (2 years ago)
Launch vehicle
FALCON 9
Launch site
Air Force Western Test Range (AFWTR)
Object type
Payload
Rocket body
Debris
Shape & HBR
Box + 2 Pan, 1.0 m
Radar Cross Section
0.963 m², Large (>1 m²)

Expand to show TLE details & history
Last TLE update: 6 hours ago

TLE from 6 hours ago
0 SPIP
1 58298U 23174AU  26126.94646168  .00004124  00000-0  15681-3 0  9995
2 58298  97.3843 203.8600 0008490 341.6984  18.3949 15.27309634138481
Epoch: 2026-05-06T22:42Z
TLE epoch observation values (Epoch: 2026-05-06T22:42:54.289Z)
Latitude
0.00006°
Longitude
-1.66587°
Altitude
481.431 km
Speed
7.628 km/s
True Right ascension
13h 35m 26s
True Declination
0° 00' 00"
Sunlit
Object was in full shadow at epoch
Visualization orbit readout
Latitude
Unknown
Longitude
Unknown
Altitude
Unknown
Speed
Unknown
Apparent Right ascension
Unknown
Apparent Declination
Unknown
Sunlit
N/A
Visualization observer readout
Local Sidereal Time
13:07:28
Azimuth
Unknown
Elevation
Unknown
Doppler factor
Unknown
Orbital elements
Apogee altitude
486.637 km
Perigee altitude
474.991 km
Semi-major axis
6,858.951 km
Eccentricity
0.00085
Inclination
97.3843°
RAAN
203.86°
Arg. of periapsis
341.6984°
True anomaly
18.42563°
Mean anomaly
18.3949°
Eccentric anomaly
18.41026°
Mean motion
3.82082 °/min
Orbital period
94.22 mins
BSTAR
0.00015681
Loading maneuver chart data...
Computing Atmospheric mass density...
Loading historical data...
Loading historical data...
Loading historical data...
Loading historical data...
Loading historical data...
Loading historical data...
Loading historical data...

Documentation

Showing up to 5 results
|